Location: Newark
(35.8833°N, 14.5000°E)
Time: 05:32:26
(UTC+00:00)

UNISAT 6 - Pass Details

Date: 20 May 2019
Orbit: 606 x 690 km, 97.8° (Epoch: 19 June)

Event Time Altitude Azimuth Distance (km) Brightness Sun altitude
Rises 20:19:36 0° 6° (N) 2,939 ? -22.6°
Reaches altitude 10° 20:21:52 10° 1° (N) 2,014 ? -22.9°
Maximum altitude 20:26:06 52° 286° (WNW) 774 ? -23.4°
Enters shadow 20:27:52 31° 226° (SW) 1,086 ? -23.7°
